Location: Hertford
(51.8000°N, 0.0667°W)
Time: 12:18:52
(UTC+00:00)

USA 234 - Pass Details

Date: 18 September 2020
Orbit: 1102 x 1106 km, 123.0° (Epoch: 16 October)

Event Time Altitude Azimuth Distance (km) Brightness Sun altitude
Exits shadow 20:19:21 - 62° (ENE) 3,198 5.4 -20.3°
Reaches altitude 10° 20:19:59 10° 64° (ENE) 2,968 5.2 -20.3°
Maximum altitude 20:26:21 52° 140° (SE) 1,343 3.3 -21.2°
Drops below altitude 10° 20:32:43 10° 216° (SW) 2,958 5.5 -22.0°
Sets 20:35:16 0° 221° (SW) 3,914 6.2 -22.3°
